Regional Weather Roundup
Issued by NWS

Home | Current Version | Previous Version | Text Only | Print | Product List | Glossary On
Versions: 1 2 3 4 5 6 7 8 9 10 11 12 13 14 15 16 17 18 19 20 21 22 23 24 25
000
ASUS45 KPSR 081010
RWRAZ

ARIZONA HOURLY REGIONAL WEATHER ROUNDUP
NATIONAL WEATHER SERVICE PHOENIX AZ
300 AM MST THU DEC 08 2016

NOTE: FAIR INDICATES FEW OR NO CLOUDS BELOW 12,000 FEET WITH NO
SIGNIFICANT WEATHER AND/OR OBSTRUCTIONS TO VISIBILITY.

AZZ001>003-036-081100-
NORTHWEST ARIZONA

CITY           SKY/WX    TMP DP  RH WIND       PRES   REMARKS
BULLHEAD CITY  CLEAR     50  14  23 N15G21    30.18S
KINGMAN        CLEAR     32   6  33 E6        30.18S WCI  26
$$

AZZ004>008-015-016-018-081100-
NORTH CENTRAL ARIZONA

CITY           SKY/WX    TMP DP  RH WIND       PRES   REMARKS
GRAND CANYON   CLEAR     25   9  50 E6        30.19F WCI  18
WILLIAMS       PTCLDY    25  19  80 SE5       30.19R WCI  19
PRESCOTT       CLEAR     27  26  96 S3        30.18R
FLAGSTAFF      CLEAR     17  14  88 CALM      30.19R
PAYSON         CLEAR     34  25  69 CALM      30.19R
PAGE           PTCLDY    28   3  34 W3        30.26R
$$

AZZ009>014-017-081100-
NORTHEAST ARIZONA

CITY           SKY/WX    TMP DP  RH WIND       PRES   REMARKS
WINSLOW        PTCLDY    24  12  60 CALM      30.24R
SAINT JOHNS    CLEAR     23  20  88 NE3       30.19R
WINDOW ROCK    PTCLDY    18  12  77 CALM      30.23S
SHOW LOW       CLEAR     25  18  74 CALM      30.20S
$$

AZZ023-081100-
GREATER PHOENIX AREA

CITY           SKY/WX    TMP DP  RH WIND       PRES   REMARKS
PHOENIX        PTCLDY    50  37  61 CALM      30.11R
BUCKEYE        PTCLDY    43  28  56 NW3       30.15R
LUKE AFB       CLEAR     44  36  73 CALM      30.11R
DEER VALLEY    CLEAR     43  39  86 CALM      30.11R
SCOTTSDALE     CLEAR     46  41  82 NE3       30.13R
MESA-GATEWAY   PTCLDY    43  36  75 E5        30.13S
$$

AZZ027-028-081100-
SOUTHWEST MARICOPA COUNTY AND PINAL COUNTY

CITY           SKY/WX    TMP DP  RH WIND       PRES   REMARKS
CASA GRANDE    NOT AVBL
GILA BEND      FAIR     N/A N/A N/A S8          N/A
$$

AZZ503-504-507>509-081100-
SOUTHEAST ARIZONA

CITY           SKY/WX    TMP DP  RH WIND       PRES   REMARKS
TUCSON         CLEAR     44  35  70 SE3       30.15S
DAVIS-MONTHAN  CLEAR     42  36  77 S6        30.14R
NOGALES        CLEAR     41  35  79 CALM      30.13F
SIERRA VISTA   CLEAR     38  33  82 S6        30.17S WCI  34
DOUGLAS        CLEAR     38  33  82 N9        30.16R WCI  31
SAFFORD        CLEAR     38  31  76 CALM      30.14R
$$

AZZ020-021-025-026-031-081100-
SOUTHWEST ARIZONA

CITY           SKY/WX    TMP DP  RH WIND       PRES   REMARKS
YUMA           CLEAR     49  17  28 E3        30.15R
$$

CAZ031-033-041-043-047-048-061-081100-
SOUTHERN CALIFORNIA

CITY           SKY/WX    TMP DP  RH WIND       PRES   REMARKS
DOWNTOWN L.A.  CLEAR     51  45  79 CALM      30.16S
L.A. AIRPORT   CLEAR     51  46  83 E5        30.16F
SAN DIEGO      PTCLDY    54  48  80 CALM      30.18R
BURBANK        CLEAR     47  39  74 CALM      30.16S
ONTARIO        CLEAR     48  45  89 N3        30.17R
RIVERSIDE      CLEAR     47  42  83 E5        30.17S
PALM SPRINGS   CLEAR     50  28  42 N8        30.17S
EL CENTRO NAS  CLEAR     45  23  42 SW3       30.17R
IMPERIAL       CLEAR     43  28  55 W5        30.15R
BLYTHE         CLEAR     45  12  26 CALM      30.17R
NEEDLES        CLEAR     44   5  20 W3        30.18S
$$

NVZ020-UTZ003-081100-
SOUTHERN NEVADA-UTAH

CITY           SKY/WX    TMP DP  RH WIND       PRES   REMARKS
LAS VEGAS      PTCLDY    37   7  28 S3        30.21R
SALT LAKE CITY PTCLDY    21  11  65 S3        30.30S
$$

NMZ009-TXZ055-081100-
NEW MEXICO-WEST TEXAS

CITY           SKY/WX    TMP DP  RH WIND       PRES   REMARKS
ALBUQUERQUE    CLOUDY    26  13  57 E23       30.27R WCI  11
EL PASO        CLOUDY    44  28  53 CALM      30.22R
$$


........................KEY........................
SKY/WX - SKY CONDITION/WEATHER
TMP    - TEMPERATURE IN FAHRENHEIT
DP     - DEW POINT IN FAHRENHEIT
RH     - RELATIVE HUMIDITY IN PERCENT
WIND   - DIRECTION AND SPEED IN MILES PER HOUR (MPH)
VRB    - VARIABLE WIND DIRECTION
PRES   - MEAN SEA LEVEL PRESSURE IN INCHES OF MERCURY
         F - FALLING PRESSURE   R - RISING PRESSURE
         S - STEADY PRESSURE
VSB    - VISIBILITY IN MILES
HX     - HEAT INDEX IN FAHRENHEIT
WCI    - WIND CHILL INDEX IN FAHRENHEIT
TC     - TEMPERATURE IN CELSIUS WHICH IS ALSO KNOWN AS
         TEMPERATURE IN CENTIGRADE
AFB    - AIR FORCE BASE
         LUKE AFB IS LUKE AIR FORCE BASE
         DAVIS-MONTHAN IS DAVIS-MONTHAN AIR FORCE BASE
NAS    - NAVAL AIR STATION
         EL CENTRO NAS IS EL CENTRO NAVAL AIR STATION
N/A    - NOT AVAILABLE





USA.gov is the U.S. government's official web portal to all federal, state and local government web resources and services.